status,avgMeasuredTime,avgSpeed,extID,medianMeasuredTime,TIMESTAMP,vehicleCount,_id,REPORT_ID
OK,117,61,1041,117,2014-08-01T08:00:00,0,20747096,187324
OK,154,47,1041,154,2014-08-01T08:10:00,3,20747918,187324
OK,154,47,1041,154,2014-08-01T08:15:00,3,20748367,187324
OK,130,55,1041,130,2014-08-01T08:20:00,1,20748816,187324
OK,137,52,1041,137,2014-08-01T08:25:00,2,20749265,187324
OK,137,52,1041,137,2014-08-01T08:30:00,2,20749714,187324
OK,161,45,1041,161,2014-08-01T08:40:00,3,20750612,187324
OK,123,58,1041,123,2014-08-01T08:50:00,4,20751510,187324
OK,161,45,1041,161,2014-08-01T09:00:00,5,20752408,187324
OK,161,45,1041,161,2014-08-01T09:05:00,0,20752857,187324
OK,143,50,1041,143,2014-08-01T09:10:00,4,20753306,187324
OK,141,51,1041,141,2014-08-01T09:20:00,5,20754204,187324
OK,176,41,1041,176,2014-08-01T09:25:00,4,20754653,187324
OK,168,43,1041,168,2014-08-01T09:30:00,1,20755102,187324
OK,134,54,1041,134,2014-08-01T09:35:00,2,20755551,187324
OK,121,59,1041,121,2014-08-01T09:40:00,4,20756000,187324
OK,109,66,1041,109,2014-08-01T09:45:00,5,20756449,187324
OK,129,56,1041,129,2014-08-01T09:50:00,3,20756898,187324
OK,129,56,1041,129,2014-08-01T09:55:00,0,20757347,187324
OK,125,57,1041,125,2014-08-01T10:00:00,3,20757796,187324
OK,125,57,1041,125,2014-08-01T10:15:00,0,20759143,187324
OK,179,40,1041,179,2014-08-01T10:20:00,1,20759592,187324
OK,179,40,1041,179,2014-08-01T10:25:00,1,20760041,187324
OK,179,40,1041,179,2014-08-01T10:30:00,0,20760490,187324
OK,174,41,1041,174,2014-08-01T10:40:00,2,20761388,187324
OK,162,44,1041,162,2014-08-01T10:50:00,4,20762286,187324
OK,156,46,1041,156,2014-08-01T11:00:00,2,20763184,187324
OK,147,49,1041,147,2014-08-01T11:20:00,0,20764979,187324
OK,136,53,1041,136,2014-08-01T11:30:00,2,20765877,187324
OK,124,58,1041,124,2014-08-01T11:40:00,2,20766775,187324
OK,124,58,1041,124,2014-08-01T11:45:00,2,20767224,187324
OK,127,57,1041,127,2014-08-01T11:50:00,0,20767673,187324
OK,152,47,1041,152,2014-08-01T11:55:00,2,20768122,187324
OK,174,41,1041,174,2014-08-01T12:00:00,1,20768571,187324
OK,122,59,1041,122,2014-08-01T12:10:00,3,20769469,187324
OK,130,55,1041,130,2014-08-01T12:20:00,3,20770367,187324
OK,149,48,1041,149,2014-08-01T12:25:00,2,20770816,187324
OK,124,58,1041,124,2014-08-01T12:30:00,2,20771265,187324
OK,147,49,1041,147,2014-08-01T12:40:00,2,20772163,187324
OK,137,52,1041,137,2014-08-01T12:45:00,4,20772612,187324
OK,115,63,1041,115,2014-08-01T12:50:00,4,20773061,187324
OK,146,49,1041,146,2014-08-01T12:55:00,2,20773510,187324
OK,125,57,1041,125,2014-08-01T13:00:00,2,20773959,187324
OK,125,57,1041,125,2014-08-01T13:05:00,2,20774408,187324
OK,125,57,1041,125,2014-08-01T13:10:00,0,20774857,187324
OK,125,57,1041,125,2014-08-01T13:15:00,0,20775306,187324
OK,125,57,1041,125,2014-08-01T13:20:00,0,20775755,187324
OK,142,51,1041,142,2014-08-01T13:30:00,6,20776653,187324
OK,124,58,1041,124,2014-08-01T13:35:00,4,20777102,187324
OK,132,54,1041,132,2014-08-01T13:40:00,0,20777551,187324
OK,132,54,1041,132,2014-08-01T13:45:00,0,20778000,187324
OK,156,46,1041,156,2014-08-01T13:50:00,2,20778449,187324
OK,133,54,1041,133,2014-08-01T14:00:00,2,20779347,187324
OK,178,40,1041,178,2014-08-01T14:05:00,2,20779796,187324
OK,172,42,1041,172,2014-08-01T14:10:00,5,20780245,187324
OK,151,47,1041,151,2014-08-01T14:15:00,6,20780694,187324
OK,135,53,1041,135,2014-08-01T14:20:00,3,20781143,187324
OK,135,53,1041,135,2014-08-01T14:25:00,1,20781592,187324
OK,135,53,1041,135,2014-08-01T14:30:00,0,20782041,187324
OK,180,40,1041,180,2014-08-01T14:35:00,1,20782490,187324
OK,180,40,1041,180,2014-08-01T14:40:00,1,20782939,187324
OK,180,40,1041,180,2014-08-01T14:45:00,0,20783388,187324
OK,156,46,1041,156,2014-08-01T14:50:00,2,20783837,187324
OK,156,46,1041,156,2014-08-01T15:00:00,0,20784735,187324
OK,115,63,1041,115,2014-08-01T15:05:00,3,20785184,187324
OK,113,64,1041,113,2014-08-01T15:10:00,4,20785633,187324
OK,112,64,1041,112,2014-08-01T15:15:00,2,20786082,187324
OK,94,77,1041,94,2014-08-01T15:20:00,0,20786531,187324
OK,131,55,1041,131,2014-08-01T15:25:00,1,20786980,187324
OK,131,55,1041,131,2014-08-01T15:30:00,5,20787429,187324
OK,116,62,1041,116,2014-08-01T15:35:00,9,20787878,187324
OK,116,62,1041,116,2014-08-01T15:40:00,5,20788327,187324
OK,106,68,1041,106,2014-08-01T15:45:00,0,20788776,187324
OK,106,68,1041,106,2014-08-01T15:50:00,0,20789225,187324
OK,160,45,1041,160,2014-08-01T15:55:00,3,20789674,187324
OK,133,54,1041,133,2014-08-01T16:00:00,2,20790123,187324
OK,133,54,1041,133,2014-08-01T16:05:00,1,20790572,187324
OK,133,54,1041,133,2014-08-01T16:10:00,0,20791021,187324
OK,133,54,1041,133,2014-08-01T16:15:00,0,20791470,187324
OK,133,54,1041,133,2014-08-01T16:20:00,0,20791919,187324
OK,133,54,1041,133,2014-08-01T16:25:00,0,20792368,187324
OK,106,68,1041,106,2014-08-01T16:30:00,1,20792817,187324
OK,169,42,1041,169,2014-08-01T16:35:00,1,20793266,187324
OK,169,42,1041,169,2014-08-01T16:40:00,1,20793715,187324
OK,169,42,1041,169,2014-08-01T16:45:00,0,20794164,187324
OK,169,42,1041,169,2014-08-01T16:50:00,0,20794613,187324
OK,169,42,1041,169,2014-08-01T16:55:00,0,20795062,187324
OK,169,42,1041,169,2014-08-01T17:00:00,0,20795511,187324
OK,169,42,1041,169,2014-08-01T17:05:00,0,20795960,187324
OK,169,42,1041,169,2014-08-01T17:10:00,0,20796409,187324
OK,117,61,1041,117,2014-08-01T17:15:00,1,20796858,187324
OK,119,60,1041,119,2014-08-01T17:20:00,2,20797307,187324
OK,121,59,1041,121,2014-08-01T17:25:00,2,20797756,187324
OK,121,59,1041,121,2014-08-01T17:30:00,2,20798205,187324
OK,145,49,1041,145,2014-08-01T17:35:00,1,20798654,187324
OK,131,55,1041,131,2014-08-01T17:40:00,2,20799103,187324
OK,118,61,1041,118,2014-08-01T17:45:00,2,20799552,187324
OK,119,60,1041,119,2014-08-01T17:50:00,1,20800001,187324
OK,119,60,1041,119,2014-08-01T17:55:00,0,20800450,187324
OK,119,60,1041,119,2014-08-01T18:00:00,0,20800899,187324
OK,119,60,1041,119,2014-08-01T18:05:00,0,20801348,187324
OK,119,60,1041,119,2014-08-01T18:10:00,0,20801797,187324
OK,111,65,1041,111,2014-08-01T18:15:00,0,20802246,187324
OK,111,65,1041,111,2014-08-01T18:20:00,0,20802695,187324
OK,111,65,1041,111,2014-08-01T18:25:00,0,20803144,187324
OK,111,65,1041,111,2014-08-01T18:30:00,0,20803593,187324
OK,111,65,1041,111,2014-08-01T18:35:00,0,20804042,187324
OK,111,65,1041,111,2014-08-01T18:40:00,0,20804491,187324
OK,111,65,1041,111,2014-08-01T18:45:00,0,20804940,187324
OK,111,65,1041,111,2014-08-01T18:50:00,0,20805389,187324
OK,111,65,1041,111,2014-08-01T18:55:00,0,20805838,187324
OK,111,65,1041,111,2014-08-01T19:00:00,0,20806287,187324
OK,111,65,1041,111,2014-08-01T19:05:00,0,20806736,187324
OK,107,67,1041,107,2014-08-01T19:10:00,1,20807185,187324
OK,122,59,1041,122,2014-08-01T19:15:00,2,20807634,187324
OK,122,59,1041,122,2014-08-01T19:20:00,2,20808083,187324
OK,122,59,1041,122,2014-08-01T19:25:00,0,20808532,187324
OK,127,57,1041,127,2014-08-01T19:30:00,1,20808981,187324
OK,127,57,1041,127,2014-08-01T19:35:00,1,20809430,187324
OK,127,57,1041,127,2014-08-01T19:40:00,0,20809879,187324
OK,127,57,1041,127,2014-08-01T19:45:00,0,20810328,187324
OK,127,57,1041,127,2014-08-01T19:50:00,0,20810777,187324
OK,127,57,1041,127,2014-08-01T19:55:00,0,20811226,187324
OK,127,57,1041,127,2014-08-01T22:00:00,0,20816955,187324
OK,127,57,1041,127,2014-08-02T00:00:00,0,20823394,187324
OK,127,57,1041,127,2014-08-02T00:05:00,0,20823843,187324
OK,127,57,1041,127,2014-08-02T00:10:00,0,20824292,187324
OK,127,57,1041,127,2014-08-02T00:15:00,0,20824741,187324
OK,127,57,1041,127,2014-08-02T00:20:00,0,20825190,187324
OK,127,57,1041,127,2014-08-02T00:25:00,0,20825639,187324
OK,127,57,1041,127,2014-08-02T00:30:00,0,20826088,187324
OK,127,57,1041,127,2014-08-02T00:35:00,0,20826537,187324
OK,127,57,1041,127,2014-08-02T00:40:00,0,20826986,187324
OK,127,57,1041,127,2014-08-02T00:45:00,0,20827435,187324
OK,127,57,1041,127,2014-08-02T00:50:00,0,20827884,187324
OK,127,57,1041,127,2014-08-02T00:55:00,0,20828333,187324
OK,127,57,1041,127,2014-08-02T01:00:00,0,20828782,187324
OK,127,57,1041,127,2014-08-02T01:05:00,0,20829231,187324
OK,127,57,1041,127,2014-08-02T01:10:00,0,20829680,187324
OK,127,57,1041,127,2014-08-02T01:15:00,0,20830129,187324
OK,127,57,1041,127,2014-08-02T01:20:00,0,20830578,187324
OK,127,57,1041,127,2014-08-02T01:25:00,0,20831027,187324
OK,127,57,1041,127,2014-08-02T01:30:00,0,20831476,187324
OK,127,57,1041,127,2014-08-02T01:35:00,0,20831925,187324
OK,127,57,1041,127,2014-08-02T01:40:00,0,20832374,187324
OK,127,57,1041,127,2014-08-02T01:45:00,0,20832823,187324
OK,127,57,1041,127,2014-08-02T01:50:00,0,20833272,187324
OK,127,57,1041,127,2014-08-02T01:55:00,0,20833721,187324
OK,127,57,1041,127,2014-08-02T02:00:00,0,20834170,187324
OK,127,57,1041,127,2014-08-02T02:05:00,0,20834619,187324
OK,127,57,1041,127,2014-08-02T02:10:00,0,20835068,187324
OK,127,57,1041,127,2014-08-02T02:15:00,0,20835517,187324
OK,127,57,1041,127,2014-08-02T02:20:00,0,20835966,187324
OK,127,57,1041,127,2014-08-02T02:25:00,0,20836415,187324
OK,107,67,1041,107,2014-08-02T02:30:00,2,20836864,187324
OK,108,67,1041,108,2014-08-02T02:35:00,0,20837313,187324
OK,108,67,1041,108,2014-08-02T02:40:00,0,20837762,187324
OK,108,67,1041,108,2014-08-02T02:45:00,0,20838211,187324
OK,108,67,1041,108,2014-08-02T02:50:00,0,20838660,187324
OK,108,67,1041,108,2014-08-02T02:55:00,0,20839109,187324
OK,108,67,1041,108,2014-08-02T03:00:00,0,20839558,187324
OK,108,67,1041,108,2014-08-02T03:05:00,0,20840007,187324
OK,108,67,1041,108,2014-08-02T03:10:00,0,20840456,187324
OK,108,67,1041,108,2014-08-02T03:15:00,0,20840905,187324
OK,108,67,1041,108,2014-08-02T03:20:00,0,20841354,187324
OK,108,67,1041,108,2014-08-02T03:25:00,0,20841803,187324
OK,108,67,1041,108,2014-08-02T03:30:00,0,20842252,187324
OK,108,67,1041,108,2014-08-02T03:35:00,0,20842701,187324
OK,108,67,1041,108,2014-08-02T03:40:00,0,20843150,187324
OK,108,67,1041,108,2014-08-02T03:45:00,0,20843599,187324
OK,108,67,1041,108,2014-08-02T03:50:00,0,20844048,187324
OK,108,67,1041,108,2014-08-02T03:55:00,0,20844497,187324
OK,108,67,1041,108,2014-08-02T06:00:00,0,20851951,187324
OK,108,67,1041,108,2014-08-02T06:05:00,0,20852400,187324
OK,108,67,1041,108,2014-08-02T06:10:00,0,20852849,187324
OK,108,67,1041,108,2014-08-02T06:15:00,0,20853298,187324
OK,108,67,1041,108,2014-08-02T06:20:00,0,20853747,187324
OK,108,67,1041,108,2014-08-02T06:25:00,0,20854196,187324
OK,162,44,1041,162,2014-08-02T06:30:00,1,20854645,187324
OK,136,53,1041,136,2014-08-02T06:35:00,2,20855094,187324
OK,110,65,1041,110,2014-08-02T06:40:00,1,20855543,187324
OK,160,45,1041,160,2014-08-02T06:45:00,1,20855992,187324
OK,137,52,1041,137,2014-08-02T06:50:00,2,20856441,187324
OK,115,63,1041,115,2014-08-02T06:55:00,0,20856890,187324
OK,115,63,1041,115,2014-08-02T07:00:00,0,20857339,187324
OK,115,63,1041,115,2014-08-02T07:05:00,0,20857788,187324
OK,115,63,1041,115,2014-08-02T07:10:00,0,20858237,187324
OK,114,63,1041,114,2014-08-02T07:15:00,1,20858686,187324
OK,110,65,1041,110,2014-08-02T07:20:00,2,20859135,187324
OK,129,56,1041,129,2014-08-02T07:25:00,3,20859584,187324
OK,129,56,1041,129,2014-08-02T07:30:00,3,20860033,187324
OK,125,57,1041,125,2014-08-02T07:35:00,2,20860482,187324
OK,131,55,1041,131,2014-08-02T07:40:00,2,20860931,187324
OK,134,54,1041,134,2014-08-02T07:45:00,1,20861380,187324
OK,109,66,1041,109,2014-08-02T07:50:00,1,20861829,187324
OK,119,60,1041,119,2014-08-02T07:55:00,2,20862278,187324
OK,126,57,1041,126,2014-08-02T08:00:00,1,20862727,187324
OK,120,60,1041,120,2014-08-02T08:05:00,2,20863176,187324
OK,115,63,1041,115,2014-08-02T08:10:00,1,20863625,187324
OK,125,57,1041,125,2014-08-02T08:15:00,1,20864074,187324
OK,131,55,1041,131,2014-08-02T08:20:00,3,20864523,187324
OK,132,54,1041,132,2014-08-02T08:25:00,3,20864972,187324
OK,157,46,1041,157,2014-08-02T08:30:00,0,20865421,187324
OK,157,46,1041,157,2014-08-02T08:35:00,0,20865870,187324
OK,134,54,1041,134,2014-08-02T08:40:00,1,20866319,187324
OK,134,54,1041,134,2014-08-02T08:45:00,1,20866768,187324
OK,134,54,1041,134,2014-08-02T08:50:00,0,20867217,187324
OK,142,51,1041,142,2014-08-02T08:55:00,2,20867666,187324
OK,142,51,1041,142,2014-08-02T09:00:00,4,20868115,187324
OK,134,54,1041,134,2014-08-02T09:05:00,2,20868564,187324
OK,104,69,1041,104,2014-08-02T09:10:00,1,20869013,187324
OK,125,57,1041,125,2014-08-02T09:15:00,3,20869462,187324
OK,127,57,1041,127,2014-08-02T09:20:00,2,20869911,187324
OK,153,47,1041,153,2014-08-02T09:25:00,1,20870360,187324
OK,153,47,1041,153,2014-08-02T09:30:00,0,20870809,187324
OK,139,52,1041,139,2014-08-02T09:35:00,2,20871258,187324
OK,139,52,1041,139,2014-08-02T09:40:00,3,20871707,187324
OK,100,72,1041,100,2014-08-02T09:45:00,1,20872156,187324
OK,100,72,1041,100,2014-08-02T09:50:00,0,20872605,187324
OK,100,72,1041,100,2014-08-02T09:55:00,0,20873054,187324
OK,127,57,1041,127,2014-08-02T10:00:00,2,20873503,187324
OK,116,62,1041,116,2014-08-02T10:05:00,1,20873952,187324
OK,189,38,1041,189,2014-08-02T10:10:00,1,20874401,187324
OK,171,42,1041,171,2014-08-02T10:15:00,2,20874850,187324
OK,155,46,1041,155,2014-08-02T10:20:00,2,20875299,187324
OK,156,46,1041,156,2014-08-02T10:25:00,1,20875748,187324
OK,126,57,1041,126,2014-08-02T10:30:00,2,20876197,187324
OK,124,58,1041,124,2014-08-02T10:35:00,3,20876646,187324
OK,86,84,1041,86,2014-08-02T10:40:00,1,20877095,187324
OK,155,46,1041,155,2014-08-02T10:45:00,1,20877544,187324
OK,155,46,1041,155,2014-08-02T10:50:00,1,20877993,187324
OK,155,46,1041,155,2014-08-02T10:55:00,0,20878442,187324
OK,107,67,1041,107,2014-08-02T11:00:00,1,20878891,187324
OK,107,67,1041,107,2014-08-02T11:05:00,0,20879340,187324
OK,107,67,1041,107,2014-08-02T11:10:00,0,20879789,187324
OK,122,59,1041,122,2014-08-02T11:15:00,1,20880238,187324
OK,128,56,1041,128,2014-08-02T11:20:00,2,20880687,187324
OK,134,54,1041,134,2014-08-02T11:25:00,0,20881136,187324
OK,134,54,1041,134,2014-08-02T11:30:00,0,20881585,187324
OK,134,54,1041,134,2014-08-02T11:35:00,0,20882034,187324
OK,138,52,1041,138,2014-08-02T11:40:00,1,20882483,187324
OK,138,52,1041,138,2014-08-02T11:45:00,1,20882932,187324
OK,138,52,1041,138,2014-08-02T11:50:00,0,20883381,187324
OK,138,52,1041,138,2014-08-02T11:55:00,0,20883830,187324
OK,138,52,1041,138,2014-08-02T12:00:00,0,20884279,187324
OK,138,52,1041,138,2014-08-02T12:05:00,0,20884728,187324
OK,117,61,1041,117,2014-08-02T12:10:00,2,20885177,187324
OK,142,51,1041,142,2014-08-02T12:15:00,4,20885626,187324
OK,154,47,1041,154,2014-08-02T12:20:00,3,20886075,187324
OK,129,56,1041,129,2014-08-02T12:25:00,3,20886524,187324
OK,117,61,1041,117,2014-08-02T12:30:00,2,20886973,187324
OK,129,56,1041,129,2014-08-02T12:35:00,0,20887422,187324
OK,129,56,1041,129,2014-08-02T12:40:00,0,20887871,187324
OK,151,47,1041,151,2014-08-02T12:45:00,1,20888320,187324
OK,151,47,1041,151,2014-08-02T12:50:00,1,20888769,187324
OK,151,47,1041,151,2014-08-02T12:55:00,0,20889218,187324
OK,151,47,1041,151,2014-08-02T13:00:00,0,20889667,187324
OK,148,48,1041,148,2014-08-02T13:05:00,3,20890116,187324
OK,141,51,1041,141,2014-08-02T13:10:00,4,20890565,187324
OK,135,53,1041,135,2014-08-02T13:15:00,3,20891014,187324
OK,169,42,1041,169,2014-08-02T13:20:00,3,20891463,187324
OK,161,45,1041,161,2014-08-02T13:25:00,2,20891912,187324
OK,126,57,1041,126,2014-08-02T13:30:00,1,20892361,187324
OK,126,57,1041,126,2014-08-02T13:35:00,1,20892810,187324
OK,126,57,1041,126,2014-08-02T13:40:00,0,20893259,187324
OK,115,63,1041,115,2014-08-02T13:45:00,0,20893708,187324
OK,115,63,1041,115,2014-08-02T13:50:00,0,20894157,187324
OK,115,63,1041,115,2014-08-02T13:55:00,0,20894606,187324
OK,115,63,1041,115,2014-08-02T14:00:00,0,20895055,187324
OK,129,56,1041,129,2014-08-02T14:05:00,1,20895504,187324
OK,129,56,1041,129,2014-08-02T14:10:00,0,20895953,187324
OK,129,56,1041,129,2014-08-02T14:15:00,0,20896402,187324
OK,129,56,1041,129,2014-08-02T14:20:00,0,20896851,187324
OK,119,60,1041,119,2014-08-02T14:25:00,1,20897300,187324
OK,119,60,1041,119,2014-08-02T14:30:00,1,20897749,187324
OK,119,60,1041,119,2014-08-02T14:35:00,0,20898198,187324
OK,119,60,1041,119,2014-08-02T14:40:00,0,20898647,187324
OK,104,69,1041,104,2014-08-02T14:45:00,1,20899096,187324
OK,140,51,1041,140,2014-08-02T14:50:00,1,20899545,187324
OK,140,51,1041,140,2014-08-02T14:55:00,1,20899994,187324
OK,140,51,1041,140,2014-08-02T15:00:00,0,20900443,187324
OK,128,56,1041,128,2014-08-02T15:05:00,3,20900892,187324
OK,128,56,1041,128,2014-08-02T15:10:00,3,20901341,187324
OK,87,83,1041,87,2014-08-02T15:15:00,0,20901790,187324
OK,87,83,1041,87,2014-08-02T15:20:00,0,20902239,187324
OK,87,83,1041,87,2014-08-02T15:25:00,0,20902688,187324
OK,87,83,1041,87,2014-08-02T15:30:00,0,20903137,187324
OK,87,83,1041,87,2014-08-02T15:35:00,0,20903586,187324
OK,166,43,1041,166,2014-08-02T15:40:00,1,20904035,187324
OK,117,61,1041,117,2014-08-02T15:45:00,2,20904484,187324
OK,120,60,1041,120,2014-08-02T15:50:00,3,20904933,187324
OK,131,55,1041,131,2014-08-02T15:55:00,1,20905382,187324
OK,151,47,1041,151,2014-08-02T16:00:00,1,20905831,187324
OK,151,47,1041,151,2014-08-02T16:05:00,0,20906280,187324
OK,151,47,1041,151,2014-08-02T16:10:00,0,20906729,187324
OK,151,47,1041,151,2014-08-02T16:15:00,0,20907178,187324
OK,151,47,1041,151,2014-08-02T16:20:00,0,20907627,187324
OK,151,47,1041,151,2014-08-02T16:25:00,0,20908076,187324
OK,151,47,1041,151,2014-08-02T16:30:00,0,20908525,187324
OK,165,43,1041,165,2014-08-02T16:35:00,1,20908974,187324
OK,165,43,1041,165,2014-08-02T16:40:00,0,20909423,187324
OK,165,43,1041,165,2014-08-02T16:45:00,0,20909872,187324
OK,105,69,1041,105,2014-08-02T16:50:00,1,20910321,187324
OK,105,69,1041,105,2014-08-02T16:55:00,0,20910770,187324
OK,105,69,1041,105,2014-08-02T17:00:00,0,20911219,187324
OK,105,69,1041,105,2014-08-02T17:05:00,0,20911668,187324
OK,105,69,1041,105,2014-08-02T17:10:00,0,20912117,187324
OK,105,69,1041,105,2014-08-02T17:15:00,0,20912566,187324
OK,135,53,1041,135,2014-08-02T17:20:00,2,20913015,187324
OK,135,53,1041,135,2014-08-02T17:25:00,2,20913464,187324
OK,141,51,1041,141,2014-08-02T17:30:00,0,20913913,187324
OK,141,51,1041,141,2014-08-02T17:35:00,0,20914362,187324
OK,141,51,1041,141,2014-08-02T17:40:00,0,20914811,187324
OK,141,51,1041,141,2014-08-02T17:45:00,0,20915260,187324
OK,141,51,1041,141,2014-08-02T17:50:00,0,20915709,187324
OK,141,51,1041,141,2014-08-02T17:55:00,0,20916158,187324
OK,141,51,1041,141,2014-08-02T18:00:00,0,20916607,187324
OK,141,51,1041,141,2014-08-02T18:05:00,0,20917056,187324
OK,141,51,1041,141,2014-08-02T18:10:00,0,20917505,187324
OK,141,51,1041,141,2014-08-02T18:15:00,0,20917954,187324
OK,141,51,1041,141,2014-08-02T18:20:00,0,20918403,187324
OK,141,51,1041,141,2014-08-02T18:25:00,0,20918852,187324
OK,141,51,1041,141,2014-08-02T18:30:00,0,20919301,187324
OK,141,51,1041,141,2014-08-02T18:35:00,0,20919750,187324
OK,119,60,1041,119,2014-08-02T18:40:00,1,20920199,187324
OK,119,60,1041,119,2014-08-02T18:45:00,1,20920648,187324
OK,119,60,1041,119,2014-08-02T18:50:00,0,20921097,187324
OK,119,60,1041,119,2014-08-02T18:55:00,0,20921546,187324
OK,119,60,1041,119,2014-08-02T19:00:00,0,20921995,187324
OK,119,60,1041,119,2014-08-02T19:05:00,0,20922444,187324
OK,119,60,1041,119,2014-08-02T19:10:00,0,20922893,187324
OK,119,60,1041,119,2014-08-02T19:15:00,0,20923342,187324
OK,119,60,1041,119,2014-08-02T19:20:00,0,20923791,187324
OK,119,60,1041,119,2014-08-02T19:25:00,0,20924240,187324
OK,119,60,1041,119,2014-08-02T19:30:00,0,20924689,187324
OK,119,60,1041,119,2014-08-02T19:35:00,1,20925138,187324
OK,119,60,1041,119,2014-08-02T19:40:00,1,20925587,187324
OK,119,60,1041,119,2014-08-02T19:45:00,0,20926036,187324
OK,119,60,1041,119,2014-08-02T19:50:00,0,20926485,187324
OK,119,60,1041,119,2014-08-02T19:55:00,0,20926934,187324
OK,138,52,1041,138,2014-08-02T20:00:00,1,20927383,187324
OK,138,52,1041,138,2014-08-02T20:05:00,1,20927832,187324
OK,129,56,1041,129,2014-08-02T20:10:00,1,20928281,187324
OK,129,56,1041,129,2014-08-02T20:15:00,1,20928730,187324
OK,129,56,1041,129,2014-08-02T20:20:00,0,20929179,187324
OK,129,56,1041,129,2014-08-02T20:25:00,0,20929628,187324
OK,129,56,1041,129,2014-08-02T20:30:00,0,20930077,187324
OK,119,60,1041,119,2014-08-02T20:35:00,1,20930526,187324
OK,119,60,1041,119,2014-08-02T20:40:00,1,20930975,187324
OK,165,43,1041,165,2014-08-02T20:45:00,1,20931424,187324
OK,165,43,1041,165,2014-08-02T20:50:00,1,20931873,187324
OK,138,52,1041,138,2014-08-02T20:55:00,1,20932322,187324
OK,135,53,1041,135,2014-08-02T21:00:00,2,20932771,187324
OK,133,54,1041,133,2014-08-02T21:05:00,1,20933220,187324
OK,133,54,1041,133,2014-08-02T21:10:00,0,20933669,187324
OK,133,54,1041,133,2014-08-02T21:15:00,0,20934118,187324
OK,133,54,1041,133,2014-08-02T21:20:00,0,20934567,187324
OK,133,54,1041,133,2014-08-02T21:25:00,0,20935016,187324
OK,133,54,1041,133,2014-08-02T21:30:00,0,20935465,187324
OK,133,54,1041,133,2014-08-02T21:35:00,0,20935914,187324
OK,133,54,1041,133,2014-08-02T21:40:00,0,20936363,187324
OK,133,54,1041,133,2014-08-02T21:45:00,0,20936812,187324
OK,133,54,1041,133,2014-08-02T21:50:00,0,20937261,187324
OK,133,54,1041,133,2014-08-02T21:55:00,0,20937710,187324
OK,133,54,1041,133,2014-08-02T22:00:00,0,20938159,187324
OK,133,54,1041,133,2014-08-02T22:05:00,0,20938608,187324
OK,133,54,1041,133,2014-08-02T22:10:00,0,20939057,187324
OK,123,58,1041,123,2014-08-02T22:15:00,1,20939506,187324
OK,123,58,1041,123,2014-08-02T22:20:00,1,20939955,187324
OK,133,54,1041,133,2014-08-02T22:25:00,1,20940404,187324
OK,133,54,1041,133,2014-08-02T22:30:00,1,20940853,187324
OK,133,54,1041,133,2014-08-02T22:35:00,0,20941302,187324
OK,133,54,1041,133,2014-08-02T22:40:00,0,20941751,187324
OK,133,54,1041,133,2014-08-02T22:45:00,0,20942200,187324
OK,133,54,1041,133,2014-08-02T22:50:00,0,20942649,187324
OK,133,54,1041,133,2014-08-02T22:55:00,0,20943098,187324
OK,133,54,1041,133,2014-08-02T23:00:00,0,20943547,187324
OK,133,54,1041,133,2014-08-02T23:10:00,0,20943996,187324
OK,133,54,1041,133,2014-08-02T23:15:00,0,20944445,187324
OK,133,54,1041,133,2014-08-02T23:20:00,0,20944894,187324
OK,133,54,1041,133,2014-08-02T23:25:00,0,20945343,187324
OK,133,54,1041,133,2014-08-02T23:30:00,0,20945792,187324
OK,133,54,1041,133,2014-08-02T23:35:00,0,20946241,187324
OK,133,54,1041,133,2014-08-02T23:40:00,0,20946690,187324
OK,98,73,1041,98,2014-08-02T23:45:00,1,20947139,187324
OK,98,73,1041,98,2014-08-02T23:50:00,0,20947588,187324
OK,98,73,1041,98,2014-08-02T23:55:00,0,20948037,187324
OK,98,73,1041,98,2014-08-03T00:00:00,0,20948486,187324
OK,98,73,1041,98,2014-08-03T00:05:00,0,20948935,187324
OK,98,73,1041,98,2014-08-03T00:10:00,0,20949383,187324
OK,98,73,1041,98,2014-08-03T00:15:00,0,20949832,187324
OK,98,73,1041,98,2014-08-03T00:20:00,0,20950281,187324
OK,98,73,1041,98,2014-08-03T00:25:00,0,20950730,187324
OK,98,73,1041,98,2014-08-03T00:30:00,0,20951179,187324
OK,98,73,1041,98,2014-08-03T00:35:00,0,20951628,187324
OK,98,73,1041,98,2014-08-03T00:40:00,0,20952077,187324
OK,98,73,1041,98,2014-08-03T00:45:00,0,20952526,187324
OK,98,73,1041,98,2014-08-03T00:50:00,0,20952975,187324
OK,98,73,1041,98,2014-08-03T00:55:00,0,20953424,187324
OK,98,73,1041,98,2014-08-03T01:00:00,0,20953873,187324
OK,98,73,1041,98,2014-08-03T01:05:00,0,20954322,187324
OK,98,73,1041,98,2014-08-03T01:10:00,0,20954771,187324
OK,98,73,1041,98,2014-08-03T01:15:00,0,20955220,187324
OK,98,73,1041,98,2014-08-03T01:20:00,0,20955669,187324
OK,98,73,1041,98,2014-08-03T01:25:00,0,20956118,187324
OK,98,73,1041,98,2014-08-03T01:30:00,0,20956567,187324
OK,98,73,1041,98,2014-08-03T01:35:00,0,20957016,187324
OK,98,73,1041,98,2014-08-03T01:40:00,0,20957465,187324
OK,98,73,1041,98,2014-08-03T01:45:00,0,20957914,187324
OK,98,73,1041,98,2014-08-03T01:50:00,0,20958363,187324
OK,98,73,1041,98,2014-08-03T01:55:00,0,20958812,187324
OK,98,73,1041,98,2014-08-03T02:00:00,0,20959261,187324
OK,98,73,1041,98,2014-08-03T02:05:00,0,20959710,187324